FENGYUN 1C DEB *, 47006

Orbit data source: Space-Track

FENGYUN 1C DEB *, 47006 is space debris in SSO originally from a launch on Mon, 10 May 1999 UTC launched from the Taiyaun Space Center, China (TSC). Fengyun 1C debris stems from the Chinese weather satellite Fengyun-1C, which was intentionally destroyed by a Chinese anti-satellite missile in 2007. This event dramatically increased the amount of space debris, with thousands of trackable fragments posing hazards to satellites and human spaceflight. The Fengyun 1C debris cloud has become a focal point in discussions about space sustainability and the need for international regulations to prevent the creation of new debris.

Loading next visibility...
Identifier
47006, 1999-025FAG
Orbit
SSO
Country
Flag of CNCN / PRC
Related business
Manufacturer
Unknown
Mission
Spacecraft
Bus & Motor
Unknown
Mass
Unknown
Launch date (UTC)
1999-05-10 (27 years ago)
Launch vehicle
Unknown
Launch site
Taiyaun Space Center, China (TSC)
Object type
Payload
Rocket body
Debris
Shape & HBR
Unknown shape, 0.1 m
Radar Cross Section
Small (<0.1 m²)

Expand to show TLE details & history
Last TLE update: 2 months ago

TLE from 2 months ago
0 FENGYUN 1C DEB *
1 47006U 99025FAG 26124.98240087  .00000334  00000-0  25719-3 0  9992
2 47006  99.1753 188.4254 0083268  44.8370 315.9482 13.98386453847694
Epoch: 2026-05-04T23:34Z
TLE epoch observation values (Epoch: 2026-05-04T23:34:39.435Z)
Latitude
0.00004°
Longitude
-28.1027°
Altitude
858.943 km
Speed
7.445 km/s
True Right ascension
12h 33m 42s
True Declination
0° 00' 00"
Sunlit
Object was in full shadow at epoch
Visualization orbit readout
Latitude
Unknown
Longitude
Unknown
Altitude
Unknown
Speed
Unknown
Apparent Right ascension
Unknown
Apparent Declination
Unknown
Sunlit
N/A
Visualization observer readout
Local Sidereal Time
02:43:48
Azimuth
Unknown
Elevation
Unknown
Doppler factor
Unknown
Orbital elements
Apogee altitude
957.173 km
Perigee altitude
836.023 km
Semi-major axis
7,274.735 km
Eccentricity
0.00833
Inclination
99.1753°
RAAN
188.4254°
Arg. of periapsis
44.837°
True anomaly
315.27977°
Mean anomaly
315.9482°
Eccentric anomaly
315.61448°
Mean motion
3.49798 °/min
Orbital period
102.92 mins
BSTAR
0.00025719
Loading maneuver chart data...
Computing Atmospheric mass density...

Documentation

Showing up to 5 results
|